Weather History for Nasa Shuttle, FL

Change the Weather History Date:

Friday, October 26, 2012

  Actual Average Record
Temperature  
Mean Temperature 74 °F -  
Max Temperature 78 °F 78 °F 89 °F (1997)
Min Temperature 69 °F 63 °F 51 °F (2005)
Cooling Degree Days 8    
Growing Degree Days 24 (Base 50)    
Moisture  
Dew Point 68 °F    
Average Humidity 82    
Maximum Humidity 94    
Minimum Humidity 69    
Precipitation  
Precipitation 0.92 in - - ()
Sea Level Pressure  
Sea Level Pressure 29.67 in    
Wind  
Wind Speed 18 mph (NE)    
Max Wind Speed 36 mph    
Max Gust Speed 48 mph    
Visibility 6 miles    
Events Rain    
Averages and records for this station are not official NWS values.
T = Trace of Precipitation, MM = Missing Value Source: NWS Daily Summary

Daily Weather History Graph

Daily Weather History Graph

Search for Another Location

Airport:

Trip Planner

Search our weather history database for the weather conditions in past years. The results will help you decide how hot, cold, wet, or windy it might be!

Date:

Astronomy

Oct. 26, 2012 Rise Set
Actual Time 7:30 AM EDT 6:42 PM EDT
Civil Twilight 7:06 AM EDT 7:06 PM EDT
Nautical Twilight 6:39 AM EDT 7:33 PM EDT
Astronomical Twilight 6:11 AM EDT 8:01 PM EDT
Moon 4:47 PM EDT 4:38 AM EDT
Length of Visible Light 11h 59m
Length of Day
11h 11m
Waxing Gibbous, 91% of the Moon is Illuminated
Oct 26
Waxing Gibbous
Oct 29
Full
Nov 6
Last Quarter
Nov 13
New
Nov 20
First Quarter

Hourly Weather History & Observations

Time (EDT) Temp. Dew Point Humidity Pressure Visibility Wind Dir Wind Speed Gust Speed Precip Events Conditions
12:55 AM 77.7 °F 69.6 °F 76% 29.79 in 10.0 mi NE 12.7 mph 23.0 mph N/A   Mostly Cloudy
1:55 AM 78.3 °F 67.8 °F 70% 29.77 in 10.0 mi NE 13.8 mph 28.8 mph N/A   Overcast
2:55 AM 78.1 °F 68.5 °F 72% 29.75 in 10.0 mi NE 17.3 mph 20.7 mph N/A   Scattered Clouds
3:16 AM 78.8 °F 68.0 °F 69% 29.75 in 10.0 mi ENE 16.1 mph 25.3 mph N/A   Light Drizzle
3:28 AM 71.6 °F 66.2 °F 83% 29.74 in 3.0 mi East 16.1 mph 29.9 mph N/A Rain Heavy Rain
3:31 AM 71.6 °F 66.2 °F 83% 29.74 in 3.0 mi East 17.3 mph 25.3 mph N/A Rain Heavy Rain
3:32 AM 71.6 °F 66.2 °F 83% 29.74 in 3.0 mi East 17.3 mph 25.3 mph N/A Rain Heavy Rain
3:33 AM 69.8 °F 66.2 °F 88% 29.74 in 3.0 mi East 16.1 mph 25.3 mph N/A Rain Heavy Rain
3:38 AM 69.8 °F 66.2 °F 88% 29.74 in 6.0 mi East 12.7 mph 25.3 mph N/A Rain Heavy Rain
3:39 AM 69.8 °F 66.2 °F 88% 29.74 in 6.0 mi East 11.5 mph 25.3 mph N/A Rain Heavy Rain
3:46 AM 69.8 °F 66.2 °F 88% 29.74 in 2.5 mi East 20.7 mph 29.9 mph N/A Rain Light Rain
3:51 AM 69.8 °F 66.2 °F 88% 29.74 in 1.8 mi ENE 16.1 mph 29.9 mph N/A Rain Rain
3:54 AM 69.8 °F 66.2 °F 88% 29.74 in 1.8 mi NE 18.4 mph 29.9 mph N/A Rain Heavy Rain
3:55 AM 70.3 °F 66.9 °F 89% 29.74 in 1.8 mi ENE 16.1 mph 29.9 mph 0.45 in Rain Heavy Rain
3:56 AM 69.8 °F 66.2 °F 88% 29.74 in 2.0 mi ENE 15.0 mph 26.5 mph N/A Rain Heavy Rain
4:03 AM 69.8 °F 68.0 °F 94% 29.73 in 3.0 mi ENE 17.3 mph 27.6 mph N/A Rain Light Rain
4:24 AM 69.8 °F 68.0 °F 94% 29.71 in 10.0 mi NE 10.4 mph - N/A   Mostly Cloudy
4:55 AM 72.3 °F 69.6 °F 91% 29.70 in 10.0 mi NE 10.4 mph - 0.04 in   Overcast
5:24 AM 75.2 °F 71.6 °F 89% 29.70 in 10.0 mi NE 13.8 mph 23.0 mph N/A   Mostly Cloudy
5:42 AM 75.2 °F 69.8 °F 83% 29.70 in 10.0 mi NE 13.8 mph 26.5 mph N/A   Scattered Clouds
5:55 AM 76.3 °F 68.9 °F 78% 29.70 in 10.0 mi NE 18.4 mph 33.4 mph 0.01 in   Scattered Clouds
6:55 AM 77.2 °F 68.0 °F 73% 29.69 in 10.0 mi NE 17.3 mph 32.2 mph N/A   Overcast
7:08 AM 77.0 °F 68.0 °F 74% 29.70 in 10.0 mi ENE 19.6 mph 27.6 mph N/A   Light Drizzle
7:30 AM 73.4 °F 68.0 °F 83% 29.69 in 10.0 mi NE 18.4 mph 28.8 mph N/A   Mostly Cloudy
7:55 AM 73.8 °F 66.6 °F 78% 29.69 in 10.0 mi NNE 18.4 mph 25.3 mph 0.01 in   Mostly Cloudy
8:01 AM 75.2 °F 68.0 °F 78% 29.70 in 9.0 mi NE 24.2 mph 28.8 mph N/A Rain Light Rain
8:16 AM 75.2 °F 68.0 °F 78% 29.70 in 9.0 mi NE 16.1 mph 23.0 mph N/A   Overcast
8:33 AM 77.0 °F 68.0 °F 74% 29.71 in 2.0 mi NE 26.5 mph 42.6 mph N/A Rain Light Rain
8:34 AM 75.2 °F 68.0 °F 78% 29.71 in 1.8 mi NE 23.0 mph 42.6 mph N/A Rain Heavy Rain
8:42 AM 73.4 °F 66.2 °F 78% 29.70 in 2.5 mi NE 17.3 mph 40.3 mph N/A Rain Light Rain
8:43 AM 71.6 °F 66.2 °F 83% 29.70 in 4.0 mi NE 17.3 mph 31.1 mph N/A Rain Light Rain
8:46 AM 73.4 °F 66.2 °F 78% 29.70 in 10.0 mi NE 18.4 mph 25.3 mph N/A   Scattered Clouds
8:55 AM 74.8 °F 69.1 °F 82% 29.70 in 10.0 mi NE 17.3 mph 32.2 mph 0.00 in   Scattered Clouds
9:55 AM 78.3 °F 68.5 °F 72% 29.70 in 10.0 mi NE 16.1 mph 32.2 mph 0.01 in   Partly Cloudy
10:19 AM 78.8 °F 68.0 °F 69% 29.70 in 10.0 mi NE 16.1 mph 34.5 mph N/A Rain Light Rain
10:22 AM 77.0 °F 68.0 °F 74% 29.71 in 1.8 mi ENE 25.3 mph 36.8 mph N/A Rain Light Rain
10:32 AM 75.2 °F 69.8 °F 83% 29.70 in 2.5 mi NE 20.7 mph 27.6 mph N/A Rain Light Rain
10:33 AM 75.2 °F 69.8 °F 83% 29.70 in 4.0 mi NE 20.7 mph 27.6 mph N/A Rain Light Rain
10:34 AM 75.2 °F 69.8 °F 83% 29.70 in 7.0 mi NE 19.6 mph 27.6 mph N/A   Mostly Cloudy
10:55 AM 76.6 °F 70.2 °F 80% 29.70 in 10.0 mi NE 16.1 mph 25.3 mph 0.04 in   Mostly Cloudy
11:01 AM 77.0 °F 69.8 °F 78% 29.71 in 2.5 mi NE 28.8 mph 38.0 mph N/A   Haze
11:02 AM 77.0 °F 69.8 °F 78% 29.71 in 1.8 mi NE 26.5 mph 38.0 mph N/A   Haze
11:03 AM 77.0 °F 69.8 °F 78% 29.71 in 1.5 mi NE 23.0 mph 38.0 mph N/A Rain Rain
11:11 AM 73.4 °F 66.2 °F 78% 29.70 in 2.0 mi NE 17.3 mph 33.4 mph N/A Rain Light Rain
11:12 AM 73.4 °F 66.2 °F 78% 29.70 in 3.0 mi NE 19.6 mph 29.9 mph N/A Rain Light Rain
11:29 AM 73.4 °F 69.8 °F 88% 29.70 in 10.0 mi NE 16.1 mph 26.5 mph N/A   Mostly Cloudy
11:55 AM 77.0 °F 68.7 °F 75% 29.68 in 10.0 mi NNE 21.9 mph 33.4 mph 0.03 in   Mostly Cloudy
12:55 PM 78.8 °F 68.2 °F 70% 29.65 in 10.0 mi NNE 24.2 mph 34.5 mph N/A   Mostly Cloudy
1:33 PM 78.8 °F 68.0 °F 69% 29.64 in 10.0 mi NNE 18.4 mph 31.1 mph N/A   Light Drizzle
1:40 PM 75.2 °F 68.0 °F 78% 29.65 in 2.5 mi NE 27.6 mph 41.4 mph N/A Rain Light Rain
1:42 PM 73.4 °F 68.0 °F 83% 29.64 in 1.5 mi NE 25.3 mph 41.4 mph N/A Rain Heavy Rain
1:53 PM 71.6 °F 68.0 °F 88% 29.63 in 2.0 mi NNE 17.3 mph 28.8 mph N/A Rain Light Rain
1:55 PM 72.3 °F 68.7 °F 88% 29.63 in 3.0 mi NNE 19.6 mph 28.8 mph 0.14 in Rain Light Rain
1:58 PM 73.4 °F 69.8 °F 88% 29.63 in 7.0 mi NNE 17.3 mph 29.9 mph N/A   Overcast
2:09 PM 75.2 °F 69.8 °F 83% 29.65 in 2.5 mi NE 35.7 mph 48.3 mph N/A Rain Light Rain
2:10 PM 75.2 °F 69.8 °F 83% 29.64 in 1.5 mi ENE 33.4 mph 48.3 mph N/A Rain Heavy Rain
2:11 PM 73.4 °F 69.8 °F 88% 29.65 in 1.0 mi ENE 32.2 mph 48.3 mph N/A Rain Heavy Rain
2:12 PM 73.4 °F 69.8 °F 88% 29.64 in 0.8 mi ENE 32.2 mph 48.3 mph N/A Rain Heavy Rain
2:13 PM 73.4 °F 68.0 °F 83% 29.64 in 0.8 mi ENE 29.9 mph 48.3 mph N/A Rain Heavy Rain
2:17 PM 69.8 °F 66.2 °F 88% 29.63 in 0.8 mi NE 18.4 mph 48.3 mph N/A Rain Rain
2:19 PM 69.8 °F 64.4 °F 83% 29.63 in 1.0 mi NE 18.4 mph 48.3 mph N/A Rain Rain
2:22 PM 69.8 °F 64.4 °F 83% 29.63 in 2.5 mi NE 19.6 mph 36.8 mph N/A Rain Rain
2:23 PM 69.8 °F 64.4 °F 83% 29.63 in 4.0 mi NE 19.6 mph 36.8 mph N/A Rain Rain
2:49 PM 71.6 °F 68.0 °F 88% 29.61 in 10.0 mi NNE 17.3 mph 26.5 mph N/A   Mostly Cloudy
2:55 PM 72.9 °F 69.3 °F 88% 29.61 in 10.0 mi NNE 17.3 mph 26.5 mph 0.12 in   Mostly Cloudy
3:25 PM 77.0 °F 69.8 °F 78% 29.60 in 10.0 mi NE 20.7 mph 34.5 mph N/A Rain Light Rain
3:39 PM 75.2 °F 69.8 °F 83% 29.59 in 10.0 mi NNE 18.4 mph 29.9 mph N/A   Mostly Cloudy
3:55 PM 75.6 °F 69.6 °F 82% 29.58 in 10.0 mi NNE 15.0 mph 27.6 mph 0.01 in   Scattered Clouds
3:56 PM 75.2 °F 69.8 °F 83% 29.58 in 10.0 mi NNE 16.1 mph 27.6 mph N/A Rain Light Rain
4:16 PM 73.4 °F 68.0 °F 83% 29.59 in 9.0 mi NE 17.3 mph 25.3 mph N/A Rain Light Rain
4:27 PM 73.4 °F 69.8 °F 88% 29.58 in 10.0 mi NE 20.7 mph 29.9 mph N/A Rain Light Rain
4:41 PM 73.4 °F 68.0 °F 83% 29.59 in 10.0 mi NE 21.9 mph 38.0 mph N/A   Mostly Cloudy
4:55 PM 74.7 °F 66.2 °F 75% 29.60 in 10.0 mi NE 24.2 mph 39.1 mph 0.01 in   Scattered Clouds
5:28 PM 75.2 °F 64.4 °F 69% 29.59 in 10.0 mi NE 18.4 mph 32.2 mph N/A Rain Light Rain
5:55 PM 74.1 °F 67.1 °F 79% 29.57 in 10.0 mi NNE 18.4 mph 31.1 mph 0.00 in Rain Light Rain
6:50 PM 73.4 °F 68.0 °F 83% 29.58 in 7.0 mi NE 17.3 mph 33.4 mph N/A Rain Light Rain
6:55 PM 73.0 °F 69.1 °F 87% 29.58 in 6.0 mi NE 18.4 mph 33.4 mph 0.05 in Rain Light Rain
7:04 PM 73.4 °F 69.8 °F 88% 29.58 in 4.0 mi NNE 20.7 mph 31.1 mph N/A Rain Light Rain
7:37 PM 73.4 °F 66.2 °F 78% 29.57 in 9.0 mi NNE 17.3 mph 29.9 mph N/A   Mostly Cloudy